Location: Bjelajci
(45.0103°N, 16.1758°E)
Time: 09:50:22
(UTC+00:00)

Cosmos 220 Rocket - Pass Details

Date: 14 July 2020
Orbit: 575 x 616 km, 74.0° (Epoch: 08 August)

Event Time Altitude Azimuth Distance (km) Brightness Sun altitude
Rises 00:55:20 0° 334° (NNW) 2,822 8.0 -18.5°
Reaches altitude 10° 00:57:36 10° 330° (NNW) 1,911 7.0 -18.3°
Maximum altitude 01:01:44 53° 254° (WSW) 720 4.1 -17.9°
Enters shadow 01:02:52 40° 205° (SSW) 866 4.3 -17.8°
